Location: Highland Meadows Observing Site
(48.4428°N, 114.5461°W)
Time: 02:19:01
(UTC-07:00)

Gurwin Techsat 1B - Visible Passes

Search period start: 25 February 2018 00:00
Search period end: 07 March 2018 00:00
Orbit: 812 x 814 km, 98.6° (Epoch: 24 February)

Date Brightness Start Highest point End Pass type
(mag) Time Alt. Az. Time Alt. Az. Time Alt. Az.
25 Feb 11.1 03:41:00 10° N 03:41:41 13° N 03:41:41 13° N visible
26 Feb 11.1 03:17:56 10° N 03:18:42 14° N 03:18:42 14° N visible
27 Feb 11.2 02:55:00 10° NNE 02:55:42 14° NNE 02:55:42 14° NNE visible
27 Feb 11.0 04:36:37 10° NNW 04:36:54 11° NNW 04:36:54 11° NNW visible
28 Feb 11.4 02:32:10 10° NNE 02:32:42 13° NNE 02:32:42 13° NNE visible
28 Feb 10.9 04:13:03 10° N 04:13:55 13° NNW 04:13:55 13° NNW visible
01 Mar 11.5 02:09:28 10° NNE 02:09:42 11° NNE 02:09:42 11° NNE visible
01 Mar 10.9 03:49:46 10° N 03:50:55 16° N 03:50:55 16° N visible
02 Mar 10.9 03:26:40 10° N 03:27:55 17° N 03:27:55 17° N visible
03 Mar 11.0 03:03:41 10° N 03:04:56 17° N 03:04:56 17° N visible
03 Mar 10.9 04:45:43 10° NNW 04:46:09 11° NNW 04:46:09 11° NNW visible
04 Mar 11.1 02:40:49 10° NNE 02:41:56 17° NNE 02:41:56 17° NNE visible
04 Mar 10.8 04:21:56 10° NNW 04:23:09 14° NNW 04:23:09 14° NNW visible
05 Mar 11.3 02:18:03 10° NNE 02:18:56 15° NNE 02:18:56 15° NNE visible
05 Mar 10.7 03:58:34 10° N 04:00:09 17° NNW 04:00:09 17° NNW visible
06 Mar 11.4 01:55:28 10° NNE 01:55:57 12° NNE 01:55:57 12° NNE visible
06 Mar 10.6 03:35:25 10° N 03:37:10 20° N 03:37:10 20° N visible
